{"data":{"norad_id":36798,"epoch":"2026-05-25T03:30:51.196032Z","epoch_age_seconds":69239,"freshness":"FRESH","line1":"1 36798U 10035D   26145.14642588  .00000322  00000+0  55610-4 0  9995","line2":"2 36798  97.7634 148.6721 0001272  67.0252 293.1092 14.74439524850365","mean_motion":14.74439524,"eccentricity":0.0001272,"inclination_deg":97.7634,"raan_deg":148.6721,"arg_perigee_deg":67.0252,"mean_anomaly_deg":293.1092,"bstar":5.561e-5,"rev_number":85036,"period_min":97.664229462151,"perigee_km":646.03740339935,"apogee_km":647.82458069653,"semimajor_km":7025.0679920479,"source":"CELESTRAK","updated_at":"2026-05-25T13:37:55.218427Z"}}